TimeCDT,TemperatureF,Dew PointF,Humidity,Sea Level PressureIn,VisibilityMPH,Wind Direction,Wind SpeedMPH,Gust SpeedMPH,PrecipitationIn,Events,Conditions,WindDirDegrees,DateUTC
12:15 AM,53.8,49.3,85,29.94,10.0,SE,5.8,-,N/A,,Clear,140,2013-10-11 05:15:00
12:35 AM,53.6,49.3,85,29.93,10.0,SE,5.8,-,N/A,,Clear,130,2013-10-11 05:35:00
12:55 AM,53.1,49.3,87,29.94,10.0,SE,5.8,-,N/A,,Clear,130,2013-10-11 05:55:00
1:15 AM,53.6,49.6,86,29.94,10.0,SE,5.8,-,N/A,,Clear,130,2013-10-11 06:15:00
1:55 AM,53.1,49.3,87,29.95,10.0,SE,4.6,-,N/A,,Clear,140,2013-10-11 06:55:00
2:15 AM,51.8,48.7,89,29.96,10.0,SSE,3.5,-,N/A,,Clear,160,2013-10-11 07:15:00
2:35 AM,51.3,48.7,91,29.96,10.0,SE,5.8,-,N/A,,Clear,140,2013-10-11 07:35:00
2:55 AM,52.3,49.5,90,29.94,10.0,SE,6.9,-,N/A,,Clear,140,2013-10-11 07:55:00
3:15 AM,52.7,49.5,89,29.94,10.0,SE,5.8,-,N/A,,Clear,130,2013-10-11 08:15:00
3:35 AM,52.7,49.3,88,29.94,10.0,SE,5.8,-,N/A,,Clear,130,2013-10-11 08:35:00
3:55 AM,52.7,49.3,88,29.94,10.0,SE,4.6,-,N/A,,Clear,140,2013-10-11 08:55:00
4:15 AM,51.6,48.7,90,29.93,10.0,SE,5.8,-,N/A,,Clear,130,2013-10-11 09:15:00
4:35 AM,51.3,48.6,90,29.93,10.0,SE,5.8,-,N/A,,Clear,130,2013-10-11 09:35:00
4:55 AM,50.9,48.4,91,29.93,10.0,SE,4.6,-,N/A,,Clear,130,2013-10-11 09:55:00
5:15 AM,50.9,48.6,92,29.93,10.0,SE,5.8,-,N/A,,Clear,130,2013-10-11 10:15:00
5:35 AM,51.6,49.1,91,29.94,10.0,SE,4.6,-,N/A,,Clear,140,2013-10-11 10:35:00
5:55 AM,50.9,48.4,91,29.94,10.0,SE,4.6,-,N/A,,Clear,140,2013-10-11 10:55:00
6:15 AM,51.1,49.1,93,29.94,7.0,SE,6.9,-,N/A,,Clear,140,2013-10-11 11:15:00
6:35 AM,50.9,48.9,93,29.94,7.0,SE,6.9,-,N/A,,Clear,140,2013-10-11 11:35:00
6:55 AM,51.1,49.1,93,29.94,7.0,SE,6.9,-,N/A,,Clear,130,2013-10-11 11:55:00
7:15 AM,51.1,49.1,93,29.94,7.0,SE,5.8,-,N/A,,Clear,140,2013-10-11 12:15:00
7:35 AM,51.3,49.3,93,29.93,5.0,SE,8.1,-,N/A,,Clear,140,2013-10-11 12:35:00
7:55 AM,51.8,50.0,94,29.93,5.0,SE,8.1,-,N/A,,Clear,140,2013-10-11 12:55:00
8:15 AM,53.1,51.3,94,29.92,5.0,SE,9.2,-,N/A,,Clear,130,2013-10-11 13:15:00
8:35 AM,54.5,52.5,93,29.93,7.0,SSE,8.1,-,N/A,,Clear,150,2013-10-11 13:35:00
8:55 AM,56.1,53.6,91,29.92,7.0,SSE,8.1,-,N/A,,Clear,150,2013-10-11 13:55:00
9:15 AM,58.8,54.9,87,29.93,10.0,SSE,10.4,-,N/A,,Clear,150,2013-10-11 14:15:00
9:35 AM,60.8,55.0,81,29.92,10.0,SSE,9.2,16.1,N/A,,Clear,160,2013-10-11 14:35:00
9:55 AM,62.2,55.2,78,29.91,10.0,SSE,9.2,-,N/A,,Clear,160,2013-10-11 14:55:00
10:15 AM,63.5,55.0,74,29.90,10.0,SE,12.7,17.3,N/A,,Clear,140,2013-10-11 15:15:00
10:35 AM,65.5,55.4,70,29.90,10.0,SSE,12.7,-,N/A,,Clear,150,2013-10-11 15:35:00
10:55 AM,67.3,55.6,66,29.89,10.0,SSE,15.0,19.6,N/A,,Clear,150,2013-10-11 15:55:00
11:15 AM,68.9,55.6,62,29.89,10.0,SSE,13.8,18.4,N/A,,Clear,150,2013-10-11 16:15:00
11:35 AM,70.3,55.6,59,29.88,10.0,SSE,16.1,20.7,N/A,,Clear,150,2013-10-11 16:35:00
11:55 AM,71.4,55.6,57,29.88,10.0,SSE,17.3,21.9,N/A,,Clear,150,2013-10-11 16:55:00
12:15 PM,72.7,55.4,55,29.86,10.0,SSE,17.3,25.3,N/A,,Clear,150,2013-10-11 17:15:00
12:35 PM,73.4,55.0,52,29.85,10.0,SSE,20.7,28.8,N/A,,Clear,160,2013-10-11 17:35:00
12:55 PM,74.3,54.7,50,29.85,10.0,SSE,19.6,26.5,N/A,,Clear,150,2013-10-11 17:55:00
1:15 PM,74.8,54.5,49,29.85,10.0,South,19.6,25.3,N/A,,Clear,170,2013-10-11 18:15:00
1:35 PM,75.0,54.9,49,29.84,10.0,South,18.4,33.4,N/A,,Scattered Clouds,170,2013-10-11 18:35:00
1:55 PM,74.3,55.0,51,29.83,10.0,South,16.1,23.0,N/A,,Mostly Cloudy,170,2013-10-11 18:55:00
2:15 PM,75.6,54.9,48,29.82,10.0,SSE,19.6,25.3,N/A,,Scattered Clouds,160,2013-10-11 19:15:00
2:35 PM,75.0,55.0,50,29.82,10.0,SSE,16.1,24.2,N/A,,Scattered Clouds,160,2013-10-11 19:35:00
2:55 PM,77.0,55.0,47,29.81,10.0,SSE,19.6,26.5,N/A,,Scattered Clouds,160,2013-10-11 19:55:00
3:15 PM,76.5,55.2,48,29.81,10.0,SSE,18.4,27.6,N/A,,Scattered Clouds,150,2013-10-11 20:15:00
3:35 PM,77.2,55.2,47,29.80,10.0,SSE,21.9,28.8,N/A,,Scattered Clouds,150,2013-10-11 20:35:00
3:55 PM,77.2,55.8,47,29.80,10.0,SSE,18.4,26.5,N/A,,Scattered Clouds,160,2013-10-11 20:55:00
4:15 PM,76.6,55.8,48,29.80,10.0,SSE,18.4,26.5,N/A,,Scattered Clouds,160,2013-10-11 21:15:00
4:35 PM,76.1,56.1,50,29.80,10.0,South,20.7,26.5,N/A,,Mostly Cloudy,170,2013-10-11 21:35:00
4:55 PM,75.0,56.3,52,29.80,10.0,SSE,17.3,24.2,N/A,,Mostly Cloudy,160,2013-10-11 21:55:00
5:15 PM,75.6,56.5,51,29.80,10.0,South,17.3,24.2,N/A,,Mostly Cloudy,170,2013-10-11 22:15:00
5:35 PM,74.3,56.7,54,29.81,10.0,SSE,18.4,25.3,N/A,,Scattered Clouds,160,2013-10-11 22:35:00
5:55 PM,74.3,56.8,54,29.81,10.0,SSE,15.0,20.7,N/A,,Mostly Cloudy,160,2013-10-11 22:55:00
6:15 PM,73.4,56.7,56,29.81,10.0,SSE,12.7,21.9,N/A,,Scattered Clouds,160,2013-10-11 23:15:00
6:35 PM,71.6,56.8,60,29.81,10.0,SSE,11.5,-,N/A,,Clear,160,2013-10-11 23:35:00
6:55 PM,71.4,56.7,60,29.82,10.0,SSE,9.2,-,N/A,,Mostly Cloudy,160,2013-10-11 23:55:00
7:15 PM,71.6,56.5,59,29.82,10.0,SSE,9.2,-,N/A,,Overcast,160,2013-10-12 00:15:00
7:35 PM,71.6,56.7,59,29.82,10.0,SSE,8.1,-,N/A,,Overcast,160,2013-10-12 00:35:00
7:55 PM,71.1,56.8,61,29.82,10.0,South,6.9,-,N/A,,Overcast,170,2013-10-12 00:55:00
8:15 PM,70.7,56.8,61,29.83,10.0,South,8.1,-,N/A,,Overcast,170,2013-10-12 01:15:00
8:35 PM,70.7,56.7,61,29.83,10.0,South,6.9,-,N/A,,Overcast,170,2013-10-12 01:35:00
8:55 PM,69.8,56.7,63,29.83,10.0,SSE,6.9,-,N/A,,Overcast,160,2013-10-12 01:55:00
9:15 PM,69.3,56.8,65,29.83,10.0,SSE,6.9,-,N/A,,Overcast,160,2013-10-12 02:15:00
9:35 PM,69.4,56.8,64,29.83,10.0,SSE,5.8,-,N/A,,Overcast,160,2013-10-12 02:35:00
9:55 PM,69.1,57.2,66,29.83,10.0,South,5.8,-,N/A,,Overcast,170,2013-10-12 02:55:00
10:15 PM,68.4,57.2,67,29.83,10.0,SSE,8.1,-,N/A,,Mostly Cloudy,160,2013-10-12 03:15:00
10:35 PM,67.5,57.2,70,29.83,10.0,South,6.9,-,N/A,,Scattered Clouds,170,2013-10-12 03:35:00
10:55 PM,66.6,57.2,72,29.84,10.0,SSE,8.1,-,N/A,,Scattered Clouds,160,2013-10-12 03:55:00
11:15 PM,66.7,57.4,72,29.84,10.0,SSE,6.9,-,N/A,,Mostly Cloudy,160,2013-10-12 04:15:00
11:35 PM,66.2,57.4,73,29.84,10.0,South,6.9,-,N/A,,Mostly Cloudy,170,2013-10-12 04:35:00
11:55 PM,66.0,57.7,75,29.84,10.0,South,8.1,-,N/A,,Mostly Cloudy,170,2013-10-12 04:55:00